Weather Roundup
Issued by NWS Corpus Christi, TX

Home | Current Version | Previous Version | Text Only | Print | Product List | Glossary On
Versions: 1 2 3 4 5 6 7 8 9 10 11 12 13 14 15 16 17 18 19 20 21 22 23 24 25 26 27 28 29 30 31 32 33 34 35 36 37 38 39 40 41 42 43 44 45 46 47 48 49 50
000
ASUS44 KCRP 271410
HRRCRP

SOUTH TEXAS REGIONAL WEATHER ROUNDUP
NATIONAL WEATHER SERVICE CORPUS CHRISTI TX
800 AM CST MON FEB 27 2017


TXZ229>244-271500-
...CORPUS CHRISTI AREA OBSERVATIONS...

CITY           SKY/WX    TMP DP  RH WIND       PRES   REMARKS
CORPUS CHRISTI MOSUNNY   69  69 100 E5        29.93R FOG
NAS CORPUS CHR PTSUNNY   69  69 100 SE7       29.92R FOG
ROCKPORT       PTSUNNY   70  68  93 E6        29.95R FOG
KINGSVILLE NAS CLOUDY    68  68 100 E3        29.91R FOG
ALICE          CLOUDY    70  67  90 S5        29.92R
ORANGE GROVE   CLOUDY    71  69  93 S8        29.93R
FALFURRIAS     CLOUDY    68  67  96 SE6       29.90R
$$

...VICTORIA AREA OBSERVATIONS...

CITY           SKY/WX    TMP DP  RH WIND       PRES   REMARKS
VICTORIA       CLOUDY    68  66  93 NE5       29.97R FOG
BEEVILLE       CLOUDY    70  70 100 SE3       29.94R
PLEASANTON     CLOUDY    68  65  91 E5        29.93R
SAN ANTONIO    CLOUDY    67  63  87 SE8       29.94R
$$

...LAREDO AREA OBSERVATIONS...

CITY           SKY/WX    TMP DP  RH WIND       PRES   REMARKS
LAREDO         PTSUNNY   67  65  93 SE7       29.90R
COTULLA        CLOUDY    68  64  87 E6        29.92R FOG
DEL RIO        CLOUDY    60  58  92 CALM      29.91R
MCALLEN        CLOUDY    71  68  90 SE7       29.91R FOG
HEBBRONVILLE   CLOUDY    64  63  96 CALM      29.92R FOG
$$

...OTHER TEXAS OBSERVATIONS...

CITY           SKY/WX    TMP DP  RH WIND       PRES   REMARKS
BROWNSVILLE    SUNNY     71  70  96 SE5       29.91R
HOUSTON        CLOUDY    69  67  93 S7        29.99S FOG
COL. STATION   CLOUDY    68  67  96 SE8       29.98R FOG
AUSTIN         MOSUNNY   68  65  90 SE7       29.94S
WACO           CLOUDY    64  63  96 SE7       29.95R FOG
FORT WORTH     CLOUDY    64  62  93 SE8       29.93R FOG
WICHITA FALLS  CLOUDY    57  55  93 S8        29.91R
LUBBOCK        PTCLDY    34  22  61 W5        29.91R
EL PASO        PTCLDY    39  17  41 NE6       29.99R
$$

...MARINE OBSERVATIONS...

STATION/POSITION TIME  SKY/WX   TEMP    WIND        PRES    VSBY  WAVE   SWELL
                                AIR SEA DIR/SP/G                  HT/PER HT/PER
                 (UTC)          (F)     (DEG/KT/KT) (MB)    (MI)  (FT/S) (FT/S)
PORT ARANSAS     1300            68 66  120/  5/  5 1012.9R
BUOY 90 E PORT A 1350            72 70  130/  6/  8 1015.1R         6/ 6   5/ 6
BUOY 45 SE BAFFI 1350            74     170/ 12/ 14 1012.1R         4/ 6   2/ 6
BUOY 200 E PT IS 1350            75 74  150/ 16/ 19 1014.8R         5/ 7
BUOY 15 E GALVES 1350            67 65  120/  6/  6 1016.5R         3/ 6   3/ 6
$$




USA.gov is the U.S. government's official web portal to all federal, state and local government web resources and services.